Overview Statistics Trail Chart Weather Telemetry Raw packets
 

This is the latest recevied weather packets stored in our database for station/object SV9TNF-56. If no packets are shown the sender has not sent any weather packets the latest 10 day(s).

<< 55 56 57 58 59 60 61 >>
Time Temp. Humidity Pressure Rain* Wind** Luminosity Snow
1788288204 26.11° C 48% 1011.5 hPa 0 mm 22.35 m/s, 110° - -
1788287904 25.56° C 50% 1011.5 hPa 0 mm 25.48 m/s, 24° - -
1788287604 26.11° C 52% 1011.5 hPa 0 mm 25.48 m/s, 102° - -
1788287304 26.11° C 43% 1011.9 hPa 0 mm 22.8 m/s, 103° - -
1788287004 26.11° C 49% 1011.5 hPa 0 mm 18.33 m/s, 79° - -
1788286703 26.11° C 46% 1011.5 hPa 0 mm 15.2 m/s, 115° - -
1788286404 25.56° C 49% 1011.5 hPa 0 mm 22.8 m/s, 98° - -
1788286104 25.56° C 53% 1011.2 hPa 0 mm 17.88 m/s, 97° - -
1788285803 25.56° C 56% 1011.2 hPa 0 mm 25.48 m/s, 105° - -
1788285503 25.56° C 58% 1011.2 hPa 0 mm 21.01 m/s, 102° - -
1788285203 25.56° C 56% 1011.2 hPa 0 mm 28.61 m/s, 96° - -
1788284903 25.56° C 53% 1010.8 hPa 0 mm 21.46 m/s, 126° - -
1788284603 25.56° C 53% 1010.8 hPa 0 mm 21.01 m/s, 120° - -
1788284303 25.56° C 55% 1010.8 hPa 0 mm 17.88 m/s, 102° - -
1788284003 25° C 59% 1010.8 hPa 0 mm 12.07 m/s, 143° - -
1788283703 25.56° C 59% 1010.8 hPa 0 mm 17.88 m/s, 126° - -
1788283403 25° C 57% 1010.8 hPa 0 mm 27.72 m/s, 115° - -
1788283103 25° C 61% 1010.8 hPa 0 mm 18.33 m/s, 20° - -
1788282802 25° C 57% 1010.8 hPa 0 mm 30.4 m/s, 90° - -
1788282502 25° C 60% 1010.8 hPa 0 mm 27.72 m/s, 110° - -
1788282202 25° C 59% 1010.8 hPa 0 mm 22.8 m/s, 99° - -
1788281902 25° C 60% 1010.8 hPa 0 mm 14.31 m/s, 174° - -
1788281602 25° C 62% 1010.5 hPa 0 mm 16.99 m/s, 178° - -
1788281302 25° C 64% 1010.5 hPa 0 mm 20.56 m/s, 115° - -
1788281002 25° C 62% 1010.5 hPa 0 mm 26.38 m/s, 116° - -

* Rain latest hour (hover to see other rain measurements)
** Current wind speed in m/s (hover to see current wind gust speed)